MAS1336 WMKK-WMKN

Flight info

Callsign MAS1336
Flight time 0h 32m
Altitude 25000
Route PIBOS1D PIBOS R208 GUNBO GUNBO1E
Aircraft B744/H-SDE3FGHIM1M2RWXY/LB1

Departure

Time 2026-04-22 13:35
Airport Kuala Lumpur International Airport (WMKK)

Arrival

Time 2026-04-22 14:07
Airport Sultan Mahmud Airport (WMKN)
Time Latitude Longitude Altitude Speed Heading
2026-04-22 13:12 2.75388 101.70849 0 ft 0 kts 326°
2026-04-22 13:25 2.75378 101.70856 85 ft 4 kts 326°
2026-04-22 13:25 2.75356 101.70871 85 ft 4 kts 332°
2026-04-22 13:26 2.75341 101.70877 84 ft 4 kts
2026-04-22 13:26 2.75320 101.70876 85 ft 4 kts 36°
2026-04-22 13:26 2.75306 101.70861 83 ft 4 kts 65°
2026-04-22 13:26 2.75298 101.70843 85 ft 0 kts 56°
2026-04-22 13:29 2.75300 101.70847 85 ft 3 kts 56°
2026-04-22 13:29 2.75324 101.70883 84 ft 10 kts 56°
2026-04-22 13:30 2.75372 101.70956 85 ft 16 kts 56°
2026-04-22 13:30 2.75444 101.71063 82 ft 21 kts 56°
2026-04-22 13:30 2.75531 101.71195 84 ft 23 kts 56°
2026-04-22 13:30 2.75622 101.71329 71 ft 24 kts 56°
2026-04-22 13:31 2.75621 101.71463 83 ft 17 kts 136°
2026-04-22 13:31 2.75520 101.71523 83 ft 17 kts 150°
2026-04-22 13:31 2.75413 101.71591 67 ft 19 kts 145°
2026-04-22 13:31 2.75301 101.71667 68 ft 19 kts 146°
2026-04-22 13:32 2.75191 101.71740 84 ft 19 kts 146°
2026-04-22 13:32 2.75079 101.71813 83 ft 19 kts 146°
2026-04-22 13:32 2.74971 101.71885 88 ft 18 kts 146°
2026-04-22 13:32 2.74870 101.71953 89 ft 17 kts 146°
2026-04-22 13:33 2.74775 101.72026 86 ft 16 kts 122°
2026-04-22 13:33 2.74770 101.72075 87 ft 0 kts 71°
2026-04-22 13:33 2.74778 101.72096 87 ft 7 kts 67°
2026-04-22 13:34 2.74815 101.72155 90 ft 12 kts 49°
2026-04-22 13:34 2.74884 101.72171 87 ft 10 kts 348°
2026-04-22 13:34 2.74921 101.72151 89 ft 1 kts 326°
2026-04-22 13:34 2.74994 101.72102 88 ft 51 kts 326°
2026-04-22 13:35 2.75628 101.71675 85 ft 164 kts 326°
2026-04-22 13:35 2.76787 101.70891 364 ft 224 kts 326°
2026-04-22 13:35 2.78096 101.70004 1615 ft 231 kts 327°
2026-04-22 13:35 2.79467 101.69127 2418 ft 253 kts 334°
2026-04-22 13:36 2.81193 101.68463 3173 ft 268 kts 341°
2026-04-22 13:36 2.83004 101.67958 4372 ft 267 kts 358°
2026-04-22 13:36 2.84765 101.68337 5899 ft 264 kts 28°
2026-04-22 13:36 2.86288 101.69420 7259 ft 274 kts 39°
2026-04-22 13:37 2.87773 101.70659 8639 ft 281 kts 38°
2026-04-22 13:37 2.89349 101.71873 9965 ft 290 kts 35°
2026-04-22 13:37 2.91046 101.73082 10888 ft 313 kts 34°
2026-04-22 13:37 2.92895 101.74409 11581 ft 341 kts 36°
2026-04-22 13:38 2.94879 101.75873 12204 ft 368 kts 36°
2026-04-22 13:38 2.99149 101.79016 14264 ft 388 kts 36°
2026-04-22 13:38 3.01360 101.80631 15307 ft 395 kts 36°
2026-04-22 13:39 3.03568 101.82250 16340 ft 401 kts 36°
2026-04-22 13:39 3.05756 101.83858 17320 ft 407 kts 36°
2026-04-22 13:39 3.08069 101.85555 18270 ft 414 kts 36°
2026-04-22 13:39 3.10408 101.87269 19139 ft 419 kts 36°
2026-04-22 13:40 3.12775 101.89006 19982 ft 425 kts 36°
2026-04-22 13:40 3.15159 101.90755 21012 ft 423 kts 36°
2026-04-22 13:40 3.17528 101.92493 22126 ft 422 kts 36°
2026-04-22 13:40 3.19906 101.94237 23205 ft 421 kts 37°
2026-04-22 13:41 3.22232 101.95944 24107 ft 419 kts 37°
2026-04-22 13:41 3.24597 101.97679 24696 ft 426 kts 37°
2026-04-22 13:41 3.26992 101.99437 24836 ft 426 kts 37°
2026-04-22 13:41 3.29368 102.01180 24829 ft 421 kts 37°
2026-04-22 13:42 3.31727 102.02911 24833 ft 418 kts 37°
2026-04-22 13:42 3.34080 102.04638 24834 ft 418 kts 37°
2026-04-22 13:42 3.36514 102.06230 24839 ft 418 kts 31°
2026-04-22 13:42 3.39030 102.07686 24835 ft 419 kts 30°
2026-04-22 13:43 3.41527 102.09114 24829 ft 418 kts 30°
2026-04-22 13:43 3.44063 102.10555 24830 ft 418 kts 27°
2026-04-22 13:43 3.46660 102.11863 24836 ft 418 kts 28°
2026-04-22 13:43 3.49238 102.13212 24834 ft 418 kts 28°
2026-04-22 13:44 3.51825 102.14552 24832 ft 418 kts 27°
2026-04-22 13:44 3.54418 102.15867 24832 ft 418 kts 27°
2026-04-22 13:44 3.57014 102.17187 24832 ft 418 kts 27°
2026-04-22 13:44 3.59568 102.18499 24829 ft 417 kts 27°
2026-04-22 13:45 3.62151 102.19827 24830 ft 417 kts 27°
2026-04-22 13:45 3.64742 102.21152 24822 ft 417 kts 27°
2026-04-22 13:45 3.67325 102.22472 24824 ft 417 kts 27°
2026-04-22 13:45 3.69904 102.23793 24824 ft 417 kts 27°
2026-04-22 13:46 3.72491 102.25119 24836 ft 417 kts 27°
2026-04-22 13:46 3.75068 102.26440 24832 ft 417 kts 27°
2026-04-22 13:46 3.77657 102.27765 24829 ft 417 kts 27°
2026-04-22 13:46 3.80237 102.29086 24826 ft 417 kts 27°
2026-04-22 13:47 3.82817 102.30408 24828 ft 417 kts 27°
2026-04-22 13:47 3.85408 102.31736 24826 ft 417 kts 27°
2026-04-22 13:47 3.87989 102.33058 24821 ft 416 kts 27°
2026-04-22 13:47 3.90565 102.34378 24820 ft 416 kts 27°
2026-04-22 13:48 3.93113 102.35683 24816 ft 415 kts 27°
2026-04-22 13:48 3.95682 102.37000 24812 ft 414 kts 27°
2026-04-22 13:48 3.98247 102.38314 24812 ft 414 kts 27°
2026-04-22 13:48 4.00821 102.39634 24810 ft 414 kts 27°
2026-04-22 13:49 4.03387 102.40949 24810 ft 414 kts 27°
2026-04-22 13:49 4.05949 102.42263 24811 ft 414 kts 27°
2026-04-22 13:49 4.08516 102.43579 24814 ft 414 kts 27°
2026-04-22 13:49 4.11084 102.44895 24815 ft 415 kts 27°
2026-04-22 13:50 4.12781 102.45764 24818 ft 415 kts 27°
2026-04-22 13:50 4.16218 102.47527 24817 ft 414 kts 28°
2026-04-22 13:50 4.18785 102.48844 24818 ft 414 kts 27°
2026-04-22 13:50 4.21347 102.50158 24817 ft 415 kts 27°
2026-04-22 13:51 4.23916 102.51475 24819 ft 415 kts 28°
2026-04-22 13:51 4.26485 102.52792 24819 ft 414 kts 28°
2026-04-22 13:51 4.29022 102.54094 24820 ft 414 kts 28°
2026-04-22 13:51 4.31580 102.55406 24823 ft 414 kts 28°
2026-04-22 13:52 4.34153 102.56726 24824 ft 414 kts 27°
2026-04-22 13:52 4.36714 102.58040 24827 ft 414 kts 28°
2026-04-22 13:52 4.39279 102.59357 24823 ft 414 kts 28°
2026-04-22 13:52 4.41838 102.60669 24826 ft 414 kts 27°
2026-04-22 13:53 4.44406 102.61987 24829 ft 414 kts 28°
2026-04-22 13:53 4.46974 102.63305 24833 ft 414 kts 28°
2026-04-22 13:53 4.49529 102.64616 24781 ft 409 kts 28°
2026-04-22 13:53 4.52063 102.65917 23883 ft 412 kts 28°
2026-04-22 13:54 4.54636 102.67239 22996 ft 414 kts 28°
2026-04-22 13:54 4.57191 102.68550 22191 ft 412 kts 28°
2026-04-22 13:54 4.59739 102.69857 21383 ft 411 kts 28°
2026-04-22 13:54 4.62291 102.71153 20537 ft 412 kts 27°
2026-04-22 13:55 4.64860 102.72408 19663 ft 414 kts 26°
2026-04-22 13:55 4.67452 102.73671 18739 ft 415 kts 27°
2026-04-22 13:55 4.70022 102.74949 17750 ft 417 kts 27°
2026-04-22 13:55 4.72636 102.76253 16903 ft 411 kts 27°
2026-04-22 13:56 4.75180 102.77512 15915 ft 414 kts 26°
2026-04-22 13:56 4.77750 102.78779 14911 ft 410 kts 26°
2026-04-22 13:56 4.80296 102.80039 13901 ft 406 kts 26°
2026-04-22 13:56 4.82818 102.81290 12845 ft 401 kts 26°
2026-04-22 13:57 4.85294 102.82517 11839 ft 393 kts 26°
2026-04-22 13:57 4.87809 102.83511 10981 ft 384 kts 14°
2026-04-22 13:57 4.90323 102.84150 10530 ft 363 kts 14°
2026-04-22 13:57 4.92714 102.84750 10070 ft 346 kts 14°
2026-04-22 13:58 4.94968 102.85319 9581 ft 318 kts 14°
2026-04-22 13:58 4.96999 102.85838 9193 ft 288 kts 14°
2026-04-22 13:58 4.98923 102.86328 8824 ft 283 kts 14°
2026-04-22 13:58 5.00802 102.86804 8459 ft 275 kts 13°
2026-04-22 13:59 5.02454 102.87224 8142 ft 272 kts 13°
2026-04-22 13:59 5.04291 102.87690 7781 ft 273 kts 13°
2026-04-22 13:59 5.06131 102.88157 7430 ft 272 kts 13°
2026-04-22 13:59 5.07967 102.88610 7077 ft 271 kts
2026-04-22 14:00 5.09819 102.88931 6722 ft 270 kts 10°
2026-04-22 14:00 5.11658 102.89320 6370 ft 270 kts 11°
2026-04-22 14:00 5.13495 102.89693 5987 ft 268 kts
2026-04-22 14:00 5.15318 102.90038 5633 ft 263 kts
2026-04-22 14:01 5.17068 102.90374 5286 ft 256 kts 12°
2026-04-22 14:01 5.18627 102.91073 4967 ft 237 kts 38°
2026-04-22 14:01 5.19799 102.92146 4618 ft 221 kts 43°
2026-04-22 14:01 5.20868 102.93195 4277 ft 208 kts 43°
2026-04-22 14:02 5.21870 102.94182 3993 ft 195 kts 44°
2026-04-22 14:02 5.22807 102.95106 3718 ft 184 kts 44°
2026-04-22 14:02 5.23699 102.95985 3434 ft 177 kts 44°
2026-04-22 14:02 5.24573 102.96845 3217 ft 176 kts 44°
2026-04-22 14:03 5.25443 102.97702 2991 ft 175 kts 44°
2026-04-22 14:03 5.26310 102.98555 2769 ft 175 kts 45°
2026-04-22 14:03 5.27175 102.99406 2560 ft 175 kts 45°
2026-04-22 14:03 5.27752 102.99974 2403 ft 174 kts 45°
2026-04-22 14:04 5.28888 103.01092 2118 ft 164 kts 46°
2026-04-22 14:04 5.29683 103.01875 1892 ft 157 kts 46°
2026-04-22 14:04 5.30454 103.02634 1687 ft 154 kts 46°
2026-04-22 14:04 5.30959 103.03132 1551 ft 154 kts 46°
2026-04-22 14:05 5.31721 103.03884 1358 ft 151 kts 46°
2026-04-22 14:05 5.32443 103.04601 1186 ft 140 kts 47°
2026-04-22 14:05 5.33787 103.05927 881 ft 134 kts 46°
2026-04-22 14:06 5.34397 103.06529 731 ft 134 kts 45°
2026-04-22 14:06 5.34990 103.07116 596 ft 135 kts 45°
2026-04-22 14:06 5.35660 103.07776 410 ft 136 kts 44°
2026-04-22 14:06 5.36329 103.08440 248 ft 135 kts 44°
2026-04-22 14:07 5.37201 103.09280 56 ft 131 kts 43°
2026-04-22 14:07 5.37609 103.09673 54 ft 105 kts 46°
2026-04-22 14:07 5.38008 103.10077 52 ft 59 kts 44°
2026-04-22 14:07 5.38196 103.10269 52 ft 19 kts 57°
2026-04-22 14:08 5.38191 103.10328 53 ft 5 kts 125°
2026-04-22 14:08 5.38179 103.10343 52 ft 0 kts 133°
2026-04-22 14:08 5.38173 103.10349 52 ft 4 kts 133°
2026-04-22 14:09 5.38145 103.10378 55 ft 7 kts 135°
2026-04-22 14:09 5.38101 103.10398 54 ft 6 kts 179°
2026-04-22 14:09 5.38068 103.10387 56 ft 1 kts 202°
2026-04-22 14:09 5.38047 103.10382 53 ft 4 kts 189°
2026-04-22 14:10 5.38037 103.10380 54 ft 0 kts 189°
2026-04-22 14:10 5.38025 103.10384 55 ft 4 kts 164°
2026-04-22 14:10 5.38001 103.10400 54 ft 5 kts 143°
2026-04-22 14:10 5.37987 103.10414 56 ft 2 kts 136°
2026-04-22 14:11 5.37981 103.10420 56 ft 1 kts 135°
2026-04-22 14:11 5.37971 103.10430 53 ft 3 kts 134°
2026-04-22 14:11 5.37959 103.10441 40 ft 2 kts 134°
2026-04-22 14:11 5.37954 103.10447 34 ft 0 kts 134°